This is the latest recevied weather packets stored in our database for station/object JF7BTK-10. If no packets are shown the sender has not sent any weather packets the latest 10 day(s).
| Time | Temp. | Humidity | Pressure | Rain* | Wind** | Luminosity | Snow |
|---|---|---|---|---|---|---|---|
| 1777704236 | 14.44° C | 61% | 1000.8 hPa | 0 mm | - | - | - |
| 1777703335 | 14.44° C | 60% | 1000.5 hPa | 0 mm | - | - | - |
| 1777702436 | 14.44° C | 60% | 1000.4 hPa | 0 mm | - | - | - |
| 1777701536 | 15° C | 51% | 999.8 hPa | 0 mm | - | - | - |
| 1777700635 | 15.56° C | 54% | 999.3 hPa | 0 mm | - | - | - |
| 1777699736 | 15.56° C | 56% | 999.2 hPa | 0 mm | - | - | - |
| 1777698836 | 15.56° C | 60% | 998.7 hPa | 0 mm | - | - | - |
| 1777697936 | 15° C | 62% | 998.4 hPa | 0 mm | - | - | - |
| 1777697036 | 15° C | 63% | 998.3 hPa | 0 mm | - | - | - |
| 1777696136 | 15.56° C | 65% | 997.9 hPa | 0 mm | - | - | - |
| 1777695236 | 15° C | 68% | 997.7 hPa | 0 mm | - | - | - |
| 1777694336 | 14.44° C | 70% | 997.2 hPa | 0 mm | - | - | - |
| 1777693436 | 14.44° C | 69% | 996.8 hPa | 0 mm | - | - | - |
| 1777692531 | 14.44° C | 68% | 996.1 hPa | 0 mm | - | - | - |
| 1777691631 | 14.44° C | 71% | 995.5 hPa | 0.25 mm | - | - | - |
| 1777690731 | 13.89° C | 75% | 994.7 hPa | 0.25 mm | - | - | - |
| 1777689832 | 13.33° C | 75% | 994.3 hPa | 0.25 mm | - | - | - |
| 1777688933 | 13.33° C | 73% | 993.8 hPa | 0.25 mm | - | - | - |
| 1777688031 | 13.33° C | 73% | 993.3 hPa | 0 mm | - | - | - |
| 1777687131 | 13.89° C | 73% | 993.2 hPa | 0 mm | - | - | - |
| 1777686231 | 13.89° C | 73% | 993.1 hPa | 0 mm | - | - | - |
| 1777685331 | 13.89° C | 72% | 992.8 hPa | 0 mm | - | - | - |
| 1777684433 | 13.89° C | 72% | 993.1 hPa | 0 mm | - | - | - |
| 1777683533 | 13.33° C | 73% | 993 hPa | 0 mm | - | - | - |
| 1777682633 | 13.33° C | 80% | 992.6 hPa | 0 mm | - | - | - |
* Rain latest hour (hover to see other rain measurements)
** Current wind speed in m/s (hover to see current wind gust speed)